Regional Weather Roundup
Issued by NWS Sterling, VA

Home | Current Version | Previous Version | Graphics & Text | Print | Product List | Glossary On
Versions: 1 2 3 4 5 6 7 8 9 10 11 12 13 14 15 16 17 18 19 20 21 22 23 24 25 26 27
000
ASUS41 KLWX 180710
RWRLWX

REGIONAL WEATHER ROUNDUP
NATIONAL WEATHER SERVICE BALTIMORE MD/WASHINGTON DC
200 AM EST WED JAN 18 2017

Note: "FAIR" indicates few or no clouds below 12,000 feet
with no significant weather and/or obstructions to visibility.
 TC=TEMPERATURE CELSIUS

 * =Non NWS site. Station does not report precipitation (e.g. rain,
    snow, etc.), thunder, or fog.

DCZ001-MDZ009-015-VAZ040>042-051-053>054-180800-
WASHINGTON METRO

CITY           SKY/WX    TMP DP  RH WIND       PRES   REMARKS
WASHINGTON NAT FOG       46  46 100 N7        29.88S VSB 1/16
DULLES         CLOUDY    46  45  96 N3        29.87S FOG
ANDREWS AFB    FOG       45  45 100 N6        29.87R VSB 1/2
FT BELVOIR     FOG       41  41 100 CALM      29.87S VSB 1/2
QUANTICO       PTCLDY    48  47  96 S5        29.87S
LEESBURG*      FOG       46  46 100 CALM      29.88F VSB 1/2
GAITHERSBURG*  CLOUDY    48  46  93 CALM      29.90F VSB 1/2

$$

MDZ006>007-011-014-180800-
BALTIMORE METRO

CITY           SKY/WX    TMP DP  RH WIND       PRES   REMARKS
BWI AIRPORT    FOG       44  44 100 CALM      29.87F VSB 1/4
MD SCIENCE CTR   N/A     46  43  89 MISG      29.89S
ANNAPOLIS      CLOUDY    44  42  93 N5        29.88R FOG
FORT MEADE*    CLOUDY    43  43 100 CALM      29.90S

$$

MDZ012-015-019>023-180800-
MARYLAND EASTERN SHORE

CITY           SKY/WX    TMP DP  RH WIND       PRES   REMARKS
OCEAN CITY     CLOUDY    55  53  93 W9        29.87F
SALISBURY      CLOUDY    54  52  93 SW12G21   29.86F
BAY BRIDGE AP* FOG       41  39  93 N3        29.88S VSB 1/2
CAMBRIDGE*     CLOUDY    43  43 100 CALM      29.87R VSB 1/4
EASTON*        FOG       48  47  95 CALM      29.90F VSB 1/2

$$

MDZ017>025-180800-
SOUTHERN MARYLAND

CITY           SKY/WX    TMP DP  RH WIND       PRES   REMARKS
PATUXENT RIVER CLOUDY    57  54  89 SW14      29.86S
ST INIGOES     CLOUDY    55  52  89 SW8       29.86F
LEONARDTOWN*   CLOUDY    55  52  88 SW8       29.87F

$$

MDZ003>005-180800-
NORTH CENTRAL MARYLAND

CITY           SKY/WX    TMP DP  RH WIND       PRES   REMARKS
FREDERICK*     FOG       41  41 100 N3        29.92R VSB 1/4
HAGERSTOWN APT FOG       40  38  93 NW5       29.89R VSB 1/2
WESTMINSTER*   MIX PCPN  43  43 100 CALM      29.87R VSB<1/4

$$

MDZ501>502-180800-
WESTERN MARYLAND

CITY           SKY/WX    TMP DP  RH WIND       PRES   REMARKS
OAKLAND*         N/A     43  43 100 W10G17    29.90S
CUMBERLAND*    CLOUDY    41  41 100 CALM      29.92R VSB 1/4

$$

VAZ025>031-180800-
SHENANDOAH VALLEY

CITY           SKY/WX    TMP DP  RH WIND       PRES   REMARKS
WINCHESTER*    FOG       37  37 100 CALM      29.88S VSB 1/2
FRONT ROYAL*   CLOUDY    39  39 100 CALM      29.87S VSB<1/4
LURAY*         CLOUDY    55  54  94 S7        29.85S
NEW MARKET*    CLOUDY    49  47  93 SW7       29.85S
STAUNTON*      CLOUDY    49  49  99 S5        29.90R
WAYNESBORO*    CLOUDY    57  52  84 W6        29.88S

$$

WVZ021-048>050-054>055-180800-
EASTERN WEST VIRGINIA PANHANDLE

CITY           SKY/WX    TMP DP  RH WIND       PRES   REMARKS
MARTINSBURG    FOG       40  39  97 N6        29.89R VSB 1/4
PETERSBURG*    PTCLDY    61  46  58 W13G21    29.87R

$$

VAZ036>039-050-180800-
CENTRAL FOOTHILLS

CITY           SKY/WX    TMP DP  RH WIND       PRES   REMARKS
CHARLOTTESVILL CLOUDY    55  53  93 S7        29.87S
CULPEPER*        N/A     48  48  99 N5        29.88R FOG
ORANGE*          N/A     54  54 100 CALM      29.89S
GORDONSVILLE*  CLOUDY    54  53  99 SW7       29.86F
WARRENTON*     CLOUDY    51  47  89 CALM      29.86R FOG

$$

VAZ055>057-180800-
NORTH AND CENTRAL PIEDMONT

CITY           SKY/WX    TMP DP  RH WIND       PRES   REMARKS
FREDERICKSBRG* CLOUDY    58  55  91 SW8       29.86S
STAFFORD*      CLOUDY    55  55  97 CALM      29.90S

$$

NCZ024-NYZ072-PAZ021-071-VAZ022-071-180800-
OTHER REGIONAL OBSERVATIONS

CITY           SKY/WX    TMP DP  RH WIND       PRES   REMARKS
NEW YORK CITY  CLOUDY    38  37  97 E8        29.92F FOG
PHILADELPHIA   CLOUDY    44  43  96 CALM      29.90S FOG
PITTSBURGH     CLOUDY    48  42  80 W12       29.91S
ROANOKE        CLOUDY    60  54  80 SW6       29.95S
RICHMOND       CLOUDY    54  54 100 SE5       29.91F FOG
RALEIGH        MOCLDY    61  56  83 SW10      29.96F

$$

ANZ530>537-180800-
MARINE OBSERVATIONS

STATION/POSITION TIME  TEMP    WIND        PRES
                       AIR SEA DIR/SP/G
                 (UTC) (F)     (DEG/KT/KT) (MB)
THOMAS PT LIGHT  0700   42 39   10/ 11/ 11   N/A
BALT KEY BRIDGE  0642   42     170/  1/  3 1011.9F
COVE POINT       0642   57     260/ 16/ 21 1011.3F
LEWISETTA        0642   59 44  250/ 13/ 16 1011.3F
SOLOMONS ISLAND  0642   54 42  230/ 15/ 18   N/A
PINEY POINT      0648          250/  8/ 10   N/A

$$





USA.gov is the U.S. government's official web portal to all federal, state and local government web resources and services.